Retour au catalogue

COSMOS 2499 DEB

LostPO
NORAD 56580·DEBRIS·🇷🇺 Russia

Lancé May 23, 2014 depuis Plesetsk Cosmodrome

Loading…

Prochains Passages (prochaines 24 heures)

TLE

PériméSource: Space-Track

Époque: Jul 23, 2026, 03:22 UTC

1 56580U 14028BP  26204.14045844  .00013423  00000-0  16496-1 0  9993
2 56580  82.2841 143.6469 0379586  26.2049 335.7754 13.38849688119637

Suivez COSMOS 2499 DEB en temps réel avec AllMySat

Download on the App Store